Temp
-12 -12 -12 -12 -12 -11 -11 -12 -11 -11 -11 -11 -10 -10 -10 -10 -10 -10 -10 -10 -10 -10 -10 -10 -10 -10 -10 -10 -10 -9 -9 -9 -9 -9 -9 -9 -9 -9 -9 -9 -9 -9 -9 -9 -9
-12 -12 -12 -12 -12 -12 -12 -11 -11 -11 -11 -11 -11 -11 -10 -10 -10 -10 -10 -10 -10 -10 -10 -10 -10 -10 -10 -10 -9 -9 -9 -9 -9 -10 -9 -9 -9 -9 -9 -9 -9 -9 -9 -9 -9
-12 -12 -12 -12 -12 -11 -11 -11 -11 -11 -11 -11 -11 -11 -11 -10 -10 -10 -10 -10 -10 -10 -10 -10 -10 -10 -10 -10 -10 -10 -9 -9 -9 -9 -10 -10 -9 -9 -9 -9 -9 -9 -9 -9 -9
-12 -12 -12 -12 -12 -12 -12 -12 -11 -11 -11 -11 -11 -11 -11 -11 -10 -10 -10 -10 -10 -10 -10 -10 -10 -10 -10 -10 -10 -10 -10 -9 -10 -10 -10 -10 -10 -9 -9 -9 -9 -9 -10 -10 -10
-12 -12 -12 -12 -12 -12 -12 -12 -12 -12 -11 -11 -11 -11 -11 -11 -11 -11 -10 -10 -10 -10 -10 -10 -10 -10 -10 -10 -10 -10 -10 -10 -10 -10 -10 -10 -10 -10 -10 -10 -10 -10 -10 -10 -10
-12 -12 -12 -12 -12 -12 -12 -12 -12 -12 -12 -11 -11 -11 -11 -11 -11 -11 -11 -10 -10 -10 -10 -10 -10 -10 -10 -10 -10 -10 -10 -10 -10 -10 -10 -10 -10 -10 -10 -10 -10 -10 -10 -10 -10
-12 -12 -12 -12 -12 -12 -12 -12 -12 -12 -12 -12 -12 -11 -11 -11 -11 -11 -11 -11 -11 -11 -11 -11 -11 -10 -10 -10 -10 -10 -10 -10 -10 -10 -10 -10 -10 -10 -10 -10 -10 -10 -10 -10 -10
-12 -12 -12 -12 -12 -12 -12 -12 -12 -13 -13 -12 -12 -12 -11 -11 -11 -11 -11 -11 -11 -11 -11 -11 -11 -11 -11 -11 -11 -11 -10 -10 -10 -10 -10 -10 -10 -10 -10 -10 -10 -10 -10 -10 -10
-12 -12 -12 -12 -12 -12 -13 -13 -13 -12 -12 -12 -12 -12 -12 -12 -12 -12 -11 -11 -11 -11 -11 -11 -11 -11 -11 -11 -11 -11 -10 -10 -11 -10 -10 -10 -11 -10 -10 -10 -10 -10 -10 -10 -10
-13 -13 -13 -13 -13 -13 -13 -13 -13 -13 -12 -12 -12 -12 -12 -12 -12 -12 -12 -12 -12 -12 -12 -11 -11 -11 -11 -11 -11 -11 -11 -11 -11 -11 -11 -11 -11 -11 -11 -11 -10 -10 -10 -10 -10
-13 -13 -13 -13 -13 -13 -13 -13 -13 -13 -13 -13 -12 -12 -13 -13 -12 -12 -12 -12 -12 -12 -12 -12 -12 -12 -12 -12 -11 -12 -11 -11 -11 -11 -11 -11 -11 -11 -11 -11 -11 -11 -11 -11 -11
-13 -14 -13 -13 -13 -13 -13 -13 -14 -13 -13 -13 -13 -13 -13 -13 -13 -13 -13 -12 -12 -12 -12 -12 -12 -12 -12 -12 -12 -12 -12 -12 -12 -11 -11 -11 -11 -11 -11 -11 -11 -11 -11 -11 -11
-14 -14 -14 -14 -14 -13 -13 -14 -14 -14 -14 -14 -13 -13 -13 -13 -13 -13 -13 -13 -13 -13 -13 -13 -12 -12 -12 -12 -12 -12 -12 -12 -12 -12 -12 -11 -11 -11 -11 -11 -11 -11 -11 -11 -11
-14 -14 -14 -14 -14 -14 -14 -14 -14 -14 -14 -14 -13 -13 -13 -13 -13 -13 -13 -13 -13 -13 -13 -13 -13 -13 -13 -13 -13 -13 -12 -12 -12 -12 -12 -12 -11 -11 -11 -11 -11 -12 -12 -12 -12
-14 -14 -14 -14 -15 -14 -14 -14 -14 -15 -14 -14 -13 -13 -13 -13 -13 -13 -13 -13 -13 -13 -13 -13 -13 -13 -13 -13 -13 -13 -13 -13 -13 -13 -12 -12 -12 -10 -11 -11 -12 -12 -12 -12 -12
-14 -14 -14 -14 -15 -15 -15 -15 -15 -15 -14 -13 -13 -13 -13 -13 -13 -14 -14 -14 -14 -13 -13 -13 -13 -14 -13 -13 -13 -13 -13 -13 -13 -13 -12 -12 -12 -10 -10 -12 -12 -12 -13 -13 -13
-15 -15 -15 -15 -15 -15 -15 -15 -15 -14 -14 -14 -13 -13 -13 -13 -14 -14 -14 -14 -14 -14 -13 -13 -14 -14 -14 -14 -13 -13 -14 -14 -13 -13 -12 -12 -12 -10 -11 -12 -13 -13 -13 -13 -13
-16 -16 -15 -15 -15 -15 -15 -15 -14 -14 -14 -14 -14 -14 -14 -14 -14 -14 -14 -14 -14 -14 -14 -14 -14 -14 -14 -14 -14 -14 -14 -14 -14 -13 -13 -13 -11 -10 -12 -12 -13 -13 -13 -13 -14
-17 -17 -16 -16 -16 -16 -16 -15 -14 -14 -15 -15 -15 -15 -15 -15 -15 -15 -15 -14 -14 -15 -15 -15 -14 -14 -14 -15 -15 -14 -14 -14 -14 -14 -14 -12 -11 -11 -12 -12 -13 -14 -14 -14 -14
-18 -18 -18 -17 -17 -17 -16 -14 -15 -15 -16 -16 -16 -16 -16 -16 -16 -15 -15 -15 -15 -15 -15 -15 -15 -15 -15 -15 -15 -14 -15 -15 -15 -14 -14 -12 -12 -11 -12 -13 -13 -14 -15 -15 -15
-19 -19 -18 -18 -18 -17 -16 -15 -16 -16 -17 -17 -17 -17 -17 -17 -17 -17 -16 -16 -16 -16 -16 -15 -15 -15 -15 -15 -15 -15 -15 -15 -15 -15 -14 -13 -12 -12 -12 -13 -14 -14 -15 -15 -15
-19 -19 -19 -19 -19 -18 -17 -17 -17 -18 -18 -18 -18 -18 -17 -18 -18 -18 -17 -17 -17 -16 -16 -17 -16 -16 -15 -16 -16 -16 -15 -16 -16 -15 -15 -14 -12 -13 -13 -14 -14 -15 -15 -15 -16
-19 -19 -19 -19 -18 -18 -17 -18 -18 -18 -18 -18 -18 -18 -18 -18 -18 -18 -18 -18 -18 -18 -18 -17 -16 -16 -16 -16 -15 -15 -15 -16 -16 -16 -14 -15 -12 -14 -14 -15 -15 -16 -16 -15 -15
-19 -19 -19 -18 -18 -18 -18 -18 -19 -19 -19 -19 -19 -19 -19 -19 -19 -19 -19 -19 -19 -19 -19 -18 -18 -17 -17 -17 -17 -17 -17 -17 -17 -16 -15 -13 -14 -15 -15 -15 -16 -17 -16 -16 -16
-20 -19 -18 -18 -17 -18 -18 -19 -19 -19 -19 -19 -19 -19 -19 -19 -19 -19 -19 -19 -19 -19 -19 -18 -18 -18 -18 -18 -17 -17 -17 -17 -16 -16 -16 -14 -15 -15 -16 -16 -16 -16 -16 -17 -16
-20 -19 -18 -18 -19 -19 -19 -19 -19 -20 -19 -19 -19 -19 -19 -19 -19 -19 -19 -19 -19 -19 -19 -18 -18 -18 -18 -18 -18 -17 -17 -16 -16 -16 -15 -15 -14 -16 -17 -16 -16 -16 -17 -17 -17
-20 -20 -20 -20 -19 -20 -18 -19 -20 -20 -20 -20 -20 -20 -20 -20 -20 -20 -20 -19 -19 -19 -19 -19 -19 -19 -18 -18 -19 -18 -16 -17 -17 -17 -17 -17 -14 -18 -17 -16 -17 -17 -17 -16 -17
Height
5746 5751 5756 5759 5762 5767 5770 5773 5776 5781 5785 5788 5792 5795 5798 5801 5805 5809 5811 5815 5818 5822 5825 5829 5832 5834 5837 5840 5842 5844 5847 5849 5851 5853 5856 5858 5860 5862 5864 5866 5867 5867 5868 5868 5869
5745 5748 5753 5757 5760 5763 5767 5770 5774 5778 5781 5785 5789 5792 5796 5799 5802 5806 5810 5812 5816 5820 5823 5827 5830 5833 5836 5838 5840 5843 5845 5847 5849 5852 5853 5855 5858 5860 5862 5864 5865 5866 5866 5867 5868
5741 5745 5749 5753 5757 5760 5763 5766 5770 5774 5778 5782 5786 5789 5792 5796 5799 5803 5807 5810 5813 5817 5821 5824 5827 5831 5833 5836 5839 5841 5844 5845 5848 5849 5851 5853 5856 5857 5859 5861 5862 5864 5865 5866 5866
5740 5742 5746 5750 5753 5756 5758 5762 5766 5769 5774 5778 5781 5785 5788 5792 5797 5799 5804 5807 5810 5814 5818 5821 5824 5828 5831 5834 5836 5838 5841 5843 5845 5847 5849 5851 5853 5855 5857 5859 5860 5862 5863 5864 5865
5734 5739 5741 5745 5749 5751 5754 5758 5761 5765 5768 5773 5776 5780 5784 5787 5791 5795 5799 5803 5806 5810 5814 5817 5821 5824 5827 5830 5833 5836 5838 5840 5842 5845 5846 5848 5850 5852 5854 5856 5857 5859 5860 5861 5863
5729 5732 5737 5740 5743 5747 5750 5753 5757 5760 5763 5767 5771 5774 5778 5782 5786 5790 5794 5798 5802 5806 5809 5813 5817 5820 5823 5826 5830 5832 5835 5837 5839 5841 5843 5845 5847 5849 5851 5853 5854 5856 5857 5858 5860
5728 5727 5730 5735 5737 5741 5745 5748 5752 5756 5759 5762 5766 5769 5773 5777 5780 5785 5789 5793 5796 5801 5804 5808 5812 5816 5820 5822 5826 5828 5831 5833 5836 5838 5840 5842 5844 5845 5847 5849 5850 5851 5853 5854 5856
5721 5725 5724 5728 5732 5734 5739 5743 5746 5750 5754 5758 5760 5763 5767 5770 5774 5778 5783 5787 5791 5795 5799 5803 5807 5811 5814 5818 5820 5824 5826 5829 5832 5834 5837 5839 5840 5841 5842 5845 5846 5847 5848 5849 5851
5716 5716 5720 5720 5724 5728 5732 5737 5740 5743 5747 5751 5754 5757 5760 5765 5769 5772 5776 5780 5784 5789 5793 5797 5801 5805 5809 5812 5815 5818 5822 5825 5827 5830 5832 5834 5836 5837 5839 5840 5842 5843 5844 5846 5847
5710 5712 5713 5716 5717 5720 5725 5729 5733 5736 5740 5743 5747 5751 5755 5759 5762 5766 5770 5774 5778 5782 5786 5790 5794 5798 5802 5806 5811 5815 5818 5820 5822 5825 5826 5828 5831 5832 5833 5836 5837 5838 5840 5841 5841
5700 5706 5707 5710 5712 5714 5717 5721 5726 5730 5733 5738 5743 5745 5750 5752 5755 5759 5763 5767 5770 5774 5778 5783 5788 5792 5798 5799 5804 5807 5810 5812 5814 5817 5819 5821 5824 5826 5828 5831 5832 5833 5834 5835 5835
5696 5698 5701 5703 5706 5708 5711 5713 5717 5722 5725 5728 5733 5737 5741 5744 5747 5751 5755 5759 5763 5766 5771 5775 5779 5785 5789 5793 5796 5799 5802 5804 5809 5810 5812 5814 5818 5818 5821 5825 5825 5827 5829 5829 5830
5689 5691 5694 5696 5699 5702 5704 5707 5709 5713 5716 5720 5723 5728 5732 5736 5739 5743 5747 5750 5754 5758 5762 5766 5772 5777 5781 5785 5788 5792 5795 5797 5801 5803 5804 5806 5809 5810 5814 5817 5818 5821 5822 5823 5824
5680 5683 5687 5687 5692 5694 5697 5699 5703 5705 5707 5711 5714 5718 5723 5727 5730 5734 5738 5743 5746 5749 5753 5757 5762 5767 5771 5775 5780 5783 5787 5790 5792 5795 5794 5799 5797 5802 5805 5809 5812 5813 5815 5816 5816
5670 5672 5676 5680 5683 5685 5688 5690 5693 5697 5696 5702 5704 5710 5714 5718 5724 5726 5730 5733 5737 5741 5746 5750 5754 5758 5763 5767 5771 5775 5778 5781 5783 5784 5786 5787 5787 5795 5796 5801 5805 5806 5806 5807 5808
5659 5663 5665 5670 5672 5676 5678 5681 5684 5687 5682 5689 5695 5700 5704 5708 5713 5716 5720 5723 5727 5731 5734 5739 5743 5748 5753 5757 5761 5765 5769 5771 5774 5774 5773 5778 5780 5783 5788 5795 5796 5796 5797 5799 5800
5648 5651 5656 5658 5663 5666 5668 5671 5673 5669 5677 5683 5687 5690 5694 5699 5702 5706 5710 5714 5717 5721 5724 5729 5733 5739 5743 5747 5751 5755 5759 5761 5762 5762 5762 5767 5769 5773 5778 5785 5786 5786 5787 5788 5789
5637 5640 5642 5647 5650 5654 5658 5661 5660 5663 5670 5673 5678 5681 5685 5689 5692 5696 5699 5703 5706 5710 5715 5719 5724 5728 5733 5737 5742 5745 5748 5751 5750 5752 5756 5756 5754 5763 5770 5772 5774 5777 5778 5778 5778
5625 5628 5632 5635 5638 5641 5645 5647 5650 5655 5663 5666 5669 5672 5676 5679 5682 5685 5689 5693 5698 5702 5706 5709 5711 5717 5721 5725 5730 5732 5734 5740 5742 5743 5742 5743 5747 5752 5757 5763 5764 5763 5766 5768 5769
5612 5617 5620 5623 5627 5630 5632 5636 5641 5647 5653 5657 5660 5663 5666 5670 5673 5676 5680 5684 5687 5690 5694 5697 5701 5705 5709 5714 5717 5719 5726 5728 5728 5730 5730 5733 5736 5740 5745 5749 5753 5754 5756 5757 5759
5598 5602 5608 5611 5614 5617 5620 5627 5633 5638 5643 5648 5650 5653 5656 5660 5663 5667 5670 5674 5676 5679 5683 5686 5690 5695 5697 5701 5705 5710 5711 5715 5719 5720 5720 5723 5726 5729 5733 5735 5741 5744 5746 5748 5750
5583 5588 5594 5597 5602 5606 5612 5619 5627 5629 5633 5637 5640 5643 5647 5650 5653 5656 5660 5663 5665 5669 5671 5675 5678 5681 5687 5690 5693 5696 5699 5702 5704 5708 5711 5714 5718 5718 5719 5723 5727 5733 5736 5737 5738
5568 5574 5578 5582 5588 5594 5601 5609 5614 5619 5624 5627 5630 5632 5637 5640 5643 5646 5649 5652 5655 5659 5661 5665 5666 5670 5673 5677 5680 5683 5688 5692 5694 5696 5699 5701 5709 5708 5708 5710 5715 5720 5722 5725 5725
5551 5556 5561 5567 5576 5581 5587 5594 5600 5607 5611 5615 5619 5623 5626 5629 5632 5635 5639 5642 5644 5648 5651 5654 5656 5659 5664 5666 5670 5672 5677 5679 5681 5681 5685 5691 5700 5698 5696 5700 5705 5708 5709 5709 5711
5533 5541 5550 5556 5563 5569 5574 5582 5589 5592 5597 5601 5606 5611 5615 5619 5622 5624 5627 5630 5633 5636 5640 5643 5645 5648 5649 5652 5653 5658 5663 5666 5667 5673 5670 5687 5681 5686 5686 5687 5694 5694 5694 5694 5693
5520 5528 5535 5542 5549 5553 5559 5570 5575 5579 5582 5588 5593 5599 5601 5604 5608 5608 5608 5612 5617 5621 5624 5629 5632 5634 5636 5639 5639 5641 5649 5653 5655 5655 5658 5666 5666 5673 5680 5680 5676 5678 5679 5676 5676
5507 5514 5518 5524 5532 5538 5549 5556 5563 5565 5569 5573 5578 5579 5584 5592 5587 5590 5593 5599 5603 5609 5613 5616 5619 5619 5621 5622 5621 5624 5639 5639 5638 5642 5648 5647 5659 5657 5660 5664 5663 5661 5658 5658 5663
Wind_Speed
23 22 22 20 20 23 28 29 27 25 25 25 26 28 29 29 27 26 25 29 29 27 25 24 25 24 21 18 16 15 14 14 15 16 17 17 15 13 10 8 7 6 6 6 6
24 23 24 25 23 24 31 30 29 27 26 26 26 28 30 31 30 28 26 29 30 29 27 25 25 24 21 20 18 16 16 14 15 16 18 18 16 14 12 10 9 8 8 8 7
26 27 27 28 27 28 27 35 33 29 28 28 28 28 31 32 32 31 28 29 33 31 29 27 26 25 24 22 21 19 17 16 16 17 18 19 18 16 15 13 12 11 10 10 10
26 28 28 30 30 30 30 34 35 31 29 30 30 30 31 34 34 32 31 30 34 34 31 29 28 27 26 24 22 20 18 17 17 18 19 19 19 18 17 16 15 15 14 12 12
27 26 29 30 31 33 33 33 38 33 34 32 32 32 33 34 35 34 33 32 36 36 34 32 31 29 27 25 24 22 20 19 19 18 18 19 19 19 18 18 16 16 16 15 15
27 27 29 30 31 33 34 37 38 34 34 35 35 34 35 36 36 36 35 33 37 39 38 35 33 32 30 29 27 25 24 23 21 20 20 19 19 19 18 18 18 18 18 18 18
28 29 29 31 31 34 36 37 35 40 34 36 37 37 37 37 37 38 37 36 38 41 40 38 37 35 33 32 30 29 28 26 24 23 23 22 21 22 21 21 21 20 21 21 21
31 30 30 31 32 34 36 39 39 37 41 36 37 39 39 39 39 39 39 38 39 43 43 41 40 38 36 35 34 32 32 29 27 27 26 26 25 24 25 24 23 23 23 22 22
34 33 33 33 34 35 36 38 40 43 41 41 38 39 41 40 40 41 40 40 40 44 46 45 44 42 40 38 38 37 34 32 31 30 30 30 29 28 28 27 25 25 25 26 26
35 35 35 36 37 38 37 38 40 41 42 44 42 40 42 41 41 41 41 41 41 44 48 48 47 46 44 42 39 37 36 34 34 32 33 33 32 32 31 29 28 27 28 28 29
34 36 35 36 38 39 39 39 40 41 42 44 42 41 38 41 41 42 42 42 43 45 48 49 49 47 44 45 43 41 40 39 38 36 37 36 35 33 33 31 30 31 31 31 31
36 37 37 37 38 39 40 40 39 39 41 43 43 43 42 43 43 44 44 44 44 45 47 50 51 49 48 47 46 44 43 42 39 39 39 38 36 37 35 33 34 33 32 34 34
38 36 37 38 39 39 40 40 40 40 42 43 43 44 43 44 44 44 46 45 45 45 48 51 51 49 49 49 48 46 45 44 42 41 42 41 39 40 38 36 36 34 36 36 36
39 40 39 38 39 40 40 41 41 42 44 45 45 45 44 45 46 46 46 47 47 47 48 52 52 52 52 51 49 48 47 45 45 44 46 43 45 42 41 39 37 37 37 37 38
42 41 42 42 40 41 42 43 43 42 47 47 46 45 44 46 44 46 46 48 48 48 48 51 52 53 53 51 50 50 48 47 46 47 47 48 50 43 43 40 38 37 38 39 40
41 44 43 44 44 44 44 43 44 46 53 47 47 47 45 45 45 47 47 48 48 49 51 51 52 53 53 51 51 51 50 49 48 50 54 51 50 46 43 38 38 40 40 40 41
41 42 45 46 45 45 46 46 47 53 50 47 45 43 45 45 45 46 46 47 49 50 51 52 53 52 53 53 53 53 51 51 53 55 56 54 53 47 46 40 38 40 40 40 41
44 44 44 44 46 47 49 49 52 51 47 47 45 43 43 41 44 45 46 47 49 49 49 49 51 52 52 52 51 50 51 52 55 56 55 56 55 48 45 43 42 39 39 40 40
47 46 46 46 47 48 49 53 53 52 48 45 46 44 42 41 41 40 45 45 46 46 48 48 52 51 51 50 51 53 54 52 52 54 56 58 55 51 48 42 40 38 37 37 38
51 49 49 48 49 50 52 53 52 48 45 44 44 45 44 41 40 41 40 43 46 48 48 50 51 51 50 51 52 54 51 51 53 55 57 57 55 52 49 45 40 37 30 30 33
55 55 52 51 51 53 56 53 48 46 44 43 45 45 44 42 43 40 40 40 43 47 49 51 51 52 52 53 52 52 53 52 52 53 55 55 55 55 51 49 41 35 32 31 33
60 59 57 57 56 56 55 51 46 44 43 43 44 44 44 43 43 43 41 41 43 44 45 48 52 54 53 51 51 52 53 53 54 55 55 56 57 56 54 51 46 37 32 35 36
63 63 61 62 61 61 58 52 50 48 45 44 44 45 44 44 45 45 46 45 44 44 44 43 49 50 51 54 56 56 55 53 53 54 57 57 55 54 54 53 46 38 37 38 39
62 65 66 65 62 62 62 59 54 51 50 49 48 47 46 46 46 47 47 48 49 48 47 47 50 52 51 51 50 50 49 48 51 56 58 56 51 53 55 52 47 44 43 44 44
63 64 59 61 60 61 61 60 59 56 53 54 54 53 51 50 49 49 49 50 50 51 52 54 56 55 55 56 57 57 56 55 58 57 60 53 57 55 56 56 49 47 49 51 52
70 61 67 59 57 60 61 58 62 61 61 59 56 54 55 54 54 54 55 56 56 56 56 56 57 58 59 60 62 64 61 61 62 65 64 62 62 58 53 54 56 55 55 57 57
72 71 62 62 60 61 53 54 57 58 62 63 61 61 60 56 57 58 59 58 58 58 58 59 61 64 65 66 67 69 64 65 67 66 64 66 61 60 60 59 59 60 62 64 58
Wind_Direction
199 204 205 197 199 206 210 205 205 210 213 212 212 211 209 209 209 210 206 203 201 198 199 200 200 200 202 203 205 206 204 202 203 200 198 201 203 206 214 222 223 229 237 246 254
207 206 207 204 197 198 211 214 209 207 213 214 215 213 211 211 210 213 211 207 206 204 203 204 206 205 207 211 213 211 210 211 212 207 206 209 213 222 235 242 249 249 252 253 251
204 209 209 207 206 205 210 214 214 211 211 214 215 216 213 213 214 213 215 212 209 209 206 207 209 211 211 214 214 213 213 214 214 215 215 219 224 234 246 252 257 258 254 255 254
215 210 212 212 211 211 213 214 213 212 216 215 214 216 216 216 216 216 216 216 212 211 211 209 211 213 214 215 214 214 214 216 219 221 223 228 234 240 248 253 256 259 260 256 255
216 220 214 215 216 217 217 219 217 215 213 218 216 216 217 217 218 217 218 217 214 214 214 213 215 214 216 216 216 215 217 218 219 224 230 235 240 246 249 254 256 257 258 259 261
220 221 225 217 218 220 222 221 220 218 216 215 218 217 218 217 218 218 219 220 216 215 216 216 217 218 218 218 217 219 219 219 219 223 228 235 240 245 249 254 257 259 260 261 263
229 221 221 226 223 221 222 222 223 221 222 220 219 219 221 219 219 219 220 221 219 218 218 218 219 219 220 221 220 221 220 221 223 227 230 235 241 247 250 254 258 261 263 264 265
225 226 218 222 224 222 223 223 224 224 227 228 223 222 223 223 221 220 221 222 221 219 219 220 221 222 222 224 224 224 224 226 229 232 235 237 241 246 252 254 256 258 262 264 267
228 222 222 218 221 224 225 225 227 228 226 230 228 226 225 225 224 223 223 224 222 222 222 222 223 224 225 226 228 229 231 234 235 237 239 241 243 248 251 254 256 257 259 263 266
231 229 224 222 220 221 223 226 228 229 231 231 231 228 226 226 226 227 226 226 225 223 223 224 225 226 227 228 232 236 239 241 242 242 243 244 245 248 250 251 254 258 259 261 263
228 233 230 227 224 222 223 224 228 230 232 232 232 236 234 231 229 229 229 229 228 227 225 226 228 230 230 230 233 235 238 240 242 242 244 244 246 249 250 252 255 256 258 261 264
233 231 231 230 228 226 226 225 228 228 229 231 231 234 235 231 230 230 230 230 231 230 228 228 229 229 230 232 234 236 239 242 244 246 247 248 249 251 250 251 254 257 260 261 263
236 234 231 230 231 229 229 231 229 230 230 231 233 234 234 233 232 231 231 231 232 232 230 230 231 231 232 234 236 238 240 243 246 247 249 250 248 251 252 251 256 258 259 261 262
234 234 234 232 231 231 231 231 232 232 234 233 233 233 233 234 233 233 234 233 234 233 233 232 231 232 233 234 237 239 242 245 246 248 249 250 252 248 252 254 254 258 260 261 262
236 234 234 235 231 230 228 230 231 232 235 233 233 234 235 235 236 236 236 237 236 236 236 236 235 235 235 236 239 241 243 245 247 249 251 250 254 249 253 254 260 260 259 259 262
238 239 235 236 234 231 230 229 231 232 235 235 234 236 237 238 237 236 236 236 237 237 237 237 235 235 236 237 239 241 243 246 248 250 251 252 254 254 256 259 261 261 260 260 261
236 235 239 236 235 233 231 229 230 232 233 235 237 236 238 238 238 239 238 238 238 237 236 237 237 237 238 239 240 242 243 246 248 249 253 255 256 259 263 264 260 260 262 263 262
236 238 235 234 235 233 232 232 233 234 234 236 236 237 238 239 238 237 236 236 237 236 236 237 238 238 238 241 243 244 245 247 251 253 257 258 257 259 263 264 266 263 262 261 262
237 236 236 234 232 231 232 234 235 236 235 235 238 239 239 238 238 237 236 235 235 236 238 237 238 237 238 239 241 242 244 247 250 254 257 257 259 262 265 265 268 267 262 261 259
238 237 236 233 234 233 232 235 236 236 235 235 237 238 239 238 238 237 235 235 233 233 234 236 237 238 239 240 241 243 244 245 247 250 254 259 262 264 267 267 263 265 262 254 254
234 237 237 236 235 235 237 237 234 234 235 232 234 235 237 238 237 238 236 237 235 234 234 236 238 238 239 240 242 244 246 245 248 249 255 259 262 265 265 267 265 260 259 258 255
234 234 234 237 240 239 239 241 241 238 234 234 233 235 235 235 236 237 236 236 235 234 234 236 239 240 240 241 242 243 245 246 247 250 252 258 261 265 268 269 269 266 262 259 259
239 236 234 236 237 240 241 242 242 241 239 238 236 235 236 234 235 235 236 235 235 234 233 233 238 240 242 243 246 248 249 248 250 251 254 253 257 257 259 265 270 272 268 265 262
243 239 237 237 236 238 240 239 240 241 241 240 239 239 239 238 238 238 238 237 237 237 238 238 241 242 244 247 246 247 248 248 248 250 252 254 257 258 264 265 268 272 274 271 269
246 242 247 247 245 244 243 240 239 239 239 240 240 241 241 241 241 242 243 241 241 242 242 243 245 245 246 247 249 248 248 249 252 256 257 259 257 255 258 266 273 271 270 270 267
242 242 240 246 248 248 244 243 242 241 242 241 242 242 241 240 241 240 239 240 240 241 242 244 246 248 248 250 252 252 252 254 255 255 258 261 262 264 268 267 265 268 266 266 264
237 241 242 241 243 246 247 248 248 248 247 246 244 242 240 241 242 241 242 244 246 246 247 248 249 250 251 251 252 253 255 259 259 259 263 262 264 269 263 264 266 265 263 264 264